Park Rapids, MN

7:52 PM CST on February 25, 2017 (GMT -0600)
Park Rapids Municipal

Weather History for KPKD - October, 2012

Change the Weather History Date:

Tuesday, October 23, 2012

  Actual Average Record
Temperature  
Mean Temperature 48 °F -  
Max Temperature 53 °F 53 °F 79 °F (1963)
Min Temperature 46 °F 29 °F 9 °F (1981)
Degree Days  
Heating Degree Days 16    
Moisture  
Dew Point 46 °F    
Average Humidity 95    
Maximum Humidity 100    
Minimum Humidity 83    
Precipitation  
Precipitation 0.07 in - - ()
Sea Level Pressure  
Sea Level Pressure 29.76 in    
Wind  
Wind Speed 9 mph (ESE)    
Max Wind Speed 12 mph    
Max Gust Speed -    
Visibility 3 miles    
Events Rain    
Averages and records for this station are not official NWS values.
T = Trace of Precipitation, MM = Missing Value Source: NWS Daily Summary

Daily Weather History Graph

Daily Weather History Graph

Search for Another Location

Airport or City:

Trip Planner

Search our weather history database for the weather conditions in past years. The results will help you decide how hot, cold, wet, or windy it might be!

Date:

Astronomy

Oct. 23, 2012 Rise Set
Actual Time 7:50 AM CDT 6:17 PM CDT
Civil Twilight 7:19 AM CDT 6:49 PM CDT
Nautical Twilight 6:43 AM CDT 7:24 PM CDT
Astronomical Twilight 6:08 AM CDT 7:59 PM CDT
Moon 3:21 PM CDT (10/23) 1:21 AM CDT (10/23)
Length of Visible Light 11h 29m
Length of Day
10h 27m
Waxing Gibbous, 67% of the Moon is Illuminated
Oct 23
Waxing Gibbous
Oct 29
Full
Nov 6
Last Quarter
Nov 13
New
Nov 20
First Quarter

Hourly Weather History & Observations

Time (CDT) Temp. Windchill Dew Point Humidity Pressure Visibility Wind Dir Wind Speed Gust Speed Precip Events Conditions
12:53 AM 46.4 °F 41.1 °F 42.8 °F 87% 29.87 in 10.0 mi East 11.5 mph - N/A   Overcast
1:53 AM 46.9 °F - 42.1 °F 83% 29.89 in 10.0 mi East 10.4 mph - N/A   Overcast
2:53 AM 46.9 °F - 43.0 °F 86% 29.87 in 10.0 mi ESE 6.9 mph - N/A   Overcast
3:08 AM 46.4 °F 42.9 °F 42.8 °F 87% 29.84 in 10.0 mi East 6.9 mph - N/A   Overcast
3:53 AM 46.9 °F - 44.1 °F 90% 29.84 in 2.5 mi ESE 9.2 mph - N/A   Overcast
4:02 AM 46.4 °F 42.9 °F 44.6 °F 93% 29.82 in 2.0 mi ESE 6.9 mph - N/A Rain Light Rain
4:53 AM 46.0 °F 41.4 °F 45.0 °F 96% 29.83 in 3.0 mi ESE 9.2 mph - 0.00 in   Overcast
5:53 AM 46.9 °F - 45.0 °F 93% 29.83 in 3.0 mi ESE 8.1 mph - N/A   Overcast
6:17 AM 46.4 °F 41.9 °F 44.6 °F 93% 29.80 in 2.0 mi East 9.2 mph - N/A   Overcast
6:41 AM 46.4 °F 42.4 °F 44.6 °F 93% 29.80 in 3.0 mi ESE 8.1 mph - 0.00 in   Overcast
6:53 AM 46.0 °F 41.0 °F 45.0 °F 96% 29.82 in 2.5 mi East 10.4 mph - 0.00 in   Overcast
7:14 AM 46.4 °F 42.4 °F 44.6 °F 93% 29.79 in 4.0 mi East 8.1 mph - 0.00 in   Overcast
7:53 AM 46.0 °F 41.4 °F 45.0 °F 96% 29.82 in 3.0 mi East 9.2 mph - 0.01 in   Overcast
8:53 AM 46.9 °F - 45.0 °F 93% 29.81 in 7.0 mi ESE 9.2 mph - 0.00 in   Overcast
9:53 AM 46.9 °F - 46.0 °F 97% 29.79 in 5.0 mi ESE 10.4 mph - 0.00 in   Overcast
10:45 AM 46.4 °F 41.1 °F 46.4 °F 100% 29.76 in 2.5 mi East 11.5 mph - N/A   Overcast
10:53 AM 46.9 °F - 46.0 °F 97% 29.78 in 2.5 mi ESE 9.2 mph - N/A   Overcast
11:22 AM 48.2 °F - 46.4 °F 93% 29.75 in 1.5 mi ESE 9.2 mph - N/A   Overcast
11:53 AM 48.0 °F - 46.9 °F 96% 29.76 in 1.0 mi ESE 9.2 mph - N/A   Overcast
12:53 PM 48.0 °F - 46.9 °F 96% 29.74 in 2.0 mi ESE 10.4 mph - N/A   Overcast
1:07 PM 48.2 °F - 46.4 °F 93% 29.71 in 3.0 mi ESE 10.4 mph - N/A   Overcast
1:42 PM 48.2 °F - 46.4 °F 93% 29.72 in 2.5 mi ESE 8.1 mph - N/A   Overcast
1:53 PM 48.0 °F - 46.9 °F 96% 29.74 in 1.2 mi ESE 6.9 mph - N/A   Overcast
2:31 PM 48.2 °F - 46.4 °F 93% 29.71 in 2.0 mi ESE 9.2 mph - N/A   Overcast
2:38 PM 48.2 °F - 46.4 °F 93% 29.71 in 1.5 mi ESE 9.2 mph - N/A   Overcast
2:53 PM 48.0 °F - 46.9 °F 96% 29.73 in 1.8 mi ESE 8.1 mph - N/A   Overcast
3:49 PM 48.2 °F - 46.4 °F 93% 29.68 in 2.0 mi ESE 10.4 mph - 0.01 in Rain Light Rain
3:53 PM 48.0 °F - 46.9 °F 96% 29.70 in 1.8 mi SE 10.4 mph - 0.02 in Rain Light Rain
4:08 PM 48.2 °F - 46.4 °F 93% 29.68 in 3.0 mi ESE 9.2 mph - 0.01 in Rain Light Rain
4:27 PM 48.2 °F - 46.4 °F 93% 29.67 in 2.0 mi ESE 9.2 mph - 0.01 in   Overcast
4:53 PM 48.0 °F - 46.9 °F 96% 29.70 in 1.8 mi ESE 10.4 mph - 0.01 in   Overcast
5:13 PM 48.2 °F - 48.2 °F 100% 29.69 in 0.8 mi SE 5.8 mph - N/A   Overcast
5:53 PM 48.0 °F - 48.0 °F 100% 29.72 in 0.8 mi ESE 6.9 mph - 0.01 in Rain Light Rain
6:13 PM 48.2 °F - 48.2 °F 100% 29.70 in 1.2 mi SE 5.8 mph - 0.00 in   Overcast
6:53 PM 48.0 °F - 48.0 °F 100% 29.72 in 1.2 mi ESE 4.6 mph - 0.01 in   Overcast
7:53 PM 48.0 °F - 48.0 °F 100% 29.73 in 1.8 mi SE 8.1 mph - N/A   Overcast
8:50 PM 48.2 °F - 48.2 °F 100% 29.72 in 0.8 mi SSE 4.6 mph - N/A   Mist
8:53 PM 48.9 °F - 48.9 °F 100% 29.75 in 0.8 mi SSE 4.6 mph - N/A   Mist
9:18 PM 48.2 °F - 48.2 °F 100% 29.72 in 1.0 mi South 4.6 mph - N/A   Overcast
9:53 PM 48.9 °F - 48.9 °F 100% 29.74 in 1.5 mi SSE 3.5 mph - 0.01 in   Overcast
10:15 PM 50.0 °F - 48.2 °F 94% 29.72 in 2.5 mi South 4.6 mph - N/A   Overcast
10:53 PM 50.0 °F - 50.0 °F 100% 29.76 in 2.5 mi South 5.8 mph - N/A   Overcast
11:33 PM 51.8 °F - 50.0 °F 94% 29.73 in 3.0 mi South 4.6 mph - N/A   Overcast
11:53 PM 51.1 °F - 51.1 °F 100% 29.75 in 3.0 mi South 5.8 mph - N/A   Overcast